Vitoria, Spain

9:18 PM CEST on April 25, 2017 (GMT +0200)
Foronda

Weather History for LEVT - October, 2013

Change the Weather History Date:

Wednesday, October 9, 2013

  Actual Average Record
Temperature  
Mean Temperature 56 °F -  
Max Temperature 64 °F 61 °F 82 °F (2012)
Min Temperature 46 °F 43 °F 38 °F (2015)
Degree Days  
Heating Degree Days 9    
Growing Degree Days 6 (Base 50)    
Moisture  
Dew Point 48 °F    
Average Humidity 76    
Maximum Humidity 94    
Minimum Humidity 52    
Precipitation  
Precipitation 0.00 in - - ()
Sea Level Pressure  
Sea Level Pressure 30.25 in    
Wind  
Wind Speed 3 mph ()    
Max Wind Speed 12 mph    
Max Gust Speed -    
Visibility 6.2 miles    
Events      
Averages and records for this station are not official NWS values.
T = Trace of Precipitation, MM = Missing Value Source: Averaged Metar Reports

Daily Weather History Graph

Daily Weather History Graph

Search for Another Location

Airport or City:

Trip Planner

Search our weather history database for the weather conditions in past years. The results will help you decide how hot, cold, wet, or windy it might be!

Date:

Astronomy

Oct. 09, 2013 Rise Set
Actual Time 8:17 AM CEST 7:38 PM CEST
Civil Twilight 7:48 AM CEST 8:06 PM CEST
Nautical Twilight 7:16 AM CEST 8:39 PM CEST
Astronomical Twilight 6:43 AM CEST 9:12 PM CEST
Moon 1:04 PM CEST (10/9) 10:52 PM CEST (10/9)
Length of Visible Light 12h 17m
Length of Day
11h 21m
Waxing Crescent, 22% of the Moon is Illuminated
Oct 9
Waxing Crescent
Oct 12
First Quarter
Oct 19
Full
Oct 27
Last Quarter
Nov 3
New

Hourly Weather History & Observations

Time (CEST) Temp. Dew Point Humidity Pressure Visibility Wind Dir Wind Speed Gust Speed Precip Events Conditions
12:00 AM 53.6 °F 51.8 °F 94% 30.33 in 6.2 mi Calm Calm - N/A   Mostly Cloudy
12:30 AM 51.8 °F 50.0 °F 94% 30.33 in 6.2 mi Calm Calm - N/A   Mostly Cloudy
1:00 AM 53.6 °F 50.0 °F 88% 30.30 in 6.2 mi Calm Calm - N/A   Mostly Cloudy
1:30 AM 53.6 °F 51.8 °F 94% 30.30 in 6.2 mi Calm Calm - N/A   Mostly Cloudy
2:00 AM 53.6 °F 51.8 °F 94% 30.30 in 6.2 mi Calm Calm - N/A   Mostly Cloudy
2:30 AM 53.6 °F 51.8 °F 94% 30.30 in 6.2 mi Calm Calm - N/A   Mostly Cloudy
3:00 AM 53.6 °F 51.8 °F 94% 30.30 in 6.2 mi WSW 1.2 mph - N/A   Mostly Cloudy
3:30 AM 53.6 °F 50.0 °F 88% 30.30 in 6.2 mi Calm Calm - N/A   Mostly Cloudy
4:00 AM 53.6 °F 50.0 °F 88% 30.30 in 6.2 mi Calm Calm - N/A   Mostly Cloudy
4:30 AM 53.6 °F 50.0 °F 88% 30.27 in 6.2 mi Calm Calm - N/A   Mostly Cloudy
5:00 AM 55.4 °F 50.0 °F 82% 30.27 in 6.2 mi Calm Calm - N/A   Mostly Cloudy
5:30 AM 53.6 °F 51.8 °F 94% 30.27 in 6.2 mi Calm Calm - N/A   Mostly Cloudy
6:00 AM 55.4 °F 50.0 °F 82% 30.27 in 6.2 mi North 2.3 mph - N/A   Mostly Cloudy
6:30 AM 55.4 °F 48.2 °F 77% 30.27 in 6.2 mi NNE 4.6 mph - N/A   Mostly Cloudy
7:00 AM 55.4 °F 48.2 °F 77% 30.27 in 6.2 mi North 4.6 mph - N/A   Mostly Cloudy
7:30 AM 55.4 °F 48.2 °F 77% 30.27 in 6.2 mi NNW 2.3 mph - N/A   Mostly Cloudy
8:00 AM 55.4 °F 48.2 °F 77% 30.27 in 6.2 mi Variable 1.2 mph - N/A   Mostly Cloudy
8:30 AM 53.6 °F 48.2 °F 82% 30.27 in 6.2 mi Calm Calm - N/A   Mostly Cloudy
9:00 AM 53.6 °F 50.0 °F 88% 30.27 in 6.2 mi Calm Calm - N/A   Mostly Cloudy
9:30 AM 55.4 °F 48.2 °F 77% 30.27 in 6.2 mi Variable 2.3 mph - N/A   Mostly Cloudy
10:00 AM 55.4 °F 50.0 °F 82% 30.30 in 6.2 mi North 2.3 mph - N/A   Mostly Cloudy
10:30 AM 57.2 °F 50.0 °F 77% 30.30 in 6.2 mi Variable 2.3 mph - N/A   Mostly Cloudy
11:00 AM 57.2 °F 48.2 °F 72% 30.30 in 6.2 mi North 4.6 mph - N/A   Mostly Cloudy
11:30 AM 57.2 °F 48.2 °F 72% 30.30 in 6.2 mi NE 5.8 mph - N/A   Mostly Cloudy
12:00 PM 59.0 °F 44.6 °F 59% 30.30 in 6.2 mi NNE 10.4 mph - N/A   Mostly Cloudy
12:30 PM 59.0 °F 46.4 °F 63% 30.30 in 6.2 mi North 8.1 mph - N/A   Mostly Cloudy
1:00 PM 62.6 °F 46.4 °F 55% 30.27 in 6.2 mi NNE 11.5 mph - N/A   Mostly Cloudy
1:30 PM 60.8 °F 46.4 °F 59% 30.27 in 6.2 mi NE 11.5 mph - N/A   Mostly Cloudy
2:00 PM 60.8 °F 46.4 °F 59% 30.27 in 6.2 mi North 9.2 mph - N/A   Mostly Cloudy
2:30 PM 64.4 °F 46.4 °F 52% 30.24 in 6.2 mi North 6.9 mph - N/A   Mostly Cloudy
3:00 PM 62.6 °F 46.4 °F 55% 30.24 in 6.2 mi North 10.4 mph - N/A   Mostly Cloudy
3:30 PM 62.6 °F 46.4 °F 55% 30.21 in 6.2 mi North 9.2 mph - N/A   Scattered Clouds
4:00 PM 62.6 °F 46.4 °F 55% 30.21 in 6.2 mi NNE 10.4 mph - N/A   Partly Cloudy
4:30 PM 64.4 °F 48.2 °F 56% 30.21 in 6.2 mi NNE 10.4 mph - N/A   Partly Cloudy
5:00 PM 64.4 °F 48.2 °F 56% 30.21 in 6.2 mi NNE 10.4 mph - N/A   Partly Cloudy
5:30 PM 62.6 °F 48.2 °F 59% 30.18 in 6.2 mi NNE 10.4 mph - N/A   Partly Cloudy
6:00 PM 62.6 °F 46.4 °F 55% 30.18 in 6.2 mi North 11.5 mph - N/A   Partly Cloudy
6:30 PM 60.8 °F 46.4 °F 59% 30.18 in 6.2 mi NNE 9.2 mph - N/A   Partly Cloudy
7:00 PM 59.0 °F 46.4 °F 63% 30.18 in 6.2 mi North 9.2 mph - N/A   Partly Cloudy
7:30 PM 57.2 °F 46.4 °F 67% 30.18 in 6.2 mi North 6.9 mph - N/A   Partly Cloudy
8:00 PM 55.4 °F 46.4 °F 72% 30.18 in 6.2 mi North 5.8 mph - N/A   Partly Cloudy
8:30 PM 53.6 °F 46.4 °F 77% 30.18 in 6.2 mi North 5.8 mph - N/A   Partly Cloudy
9:00 PM 51.8 °F 46.4 °F 82% 30.21 in - North 3.5 mph - N/A   Clear
9:30 PM 48.2 °F 44.6 °F 87% 30.21 in - Variable 2.3 mph - N/A   Clear
10:00 PM 48.2 °F 44.6 °F 87% 30.21 in - NE 4.6 mph - N/A   Clear
10:30 PM 48.2 °F 44.6 °F 87% 30.21 in - ENE 1.2 mph - N/A   Clear
11:00 PM 48.2 °F 44.6 °F 87% 30.21 in - NW 1.2 mph - N/A   Clear
11:30 PM 46.4 °F 44.6 °F 93% 30.21 in - Calm Calm - N/A   Clear